Location: Petruro
(41.0333°N, 14.7833°E)
Time: 14:43:42
(UTC+00:00)

SeaSat 1 - Pass Details

Date: 20 June 2021
Orbit: 745 x 746 km, 108.0° (Epoch: 04 August)

Event Time Altitude Azimuth Distance (km) Brightness Sun altitude
Rises 02:29:24 0° 21° (NNE) 3,196 7.0 -9.6°
Reaches altitude 10° 02:31:43 10° 16° (NNE) 2,269 6.0 -9.3°
Maximum altitude 02:36:29 52° 301° (WNW) 930 2.9 -8.7°
Drops below altitude 10° 02:41:14 10° 226° (SW) 2,256 4.2 -8.0°
Enters shadow 02:41:17 10° 226° (SW) 2,278 4.3 -8.0°
